{"data":{"norad_id":62558,"epoch":"2026-09-21T15:45:22.533120Z","epoch_age_seconds":71465,"freshness":"FRESH","line1":"1 62558U 25006E   26264.65651080  .00156935  00000+0  12043-2 0  9990","line2":"2 62558  43.0001  38.6060 0001469 275.5951  84.4749 15.70826511 97427","mean_motion":15.70826511,"eccentricity":0.0001469,"inclination_deg":43.0001,"raan_deg":38.606,"arg_perigee_deg":275.5951,"mean_anomaly_deg":84.4749,"bstar":0.0012043,"rev_number":9742,"period_min":91.671485674334,"perigee_km":355.54429281749,"apogee_km":357.52293904445,"semimajor_km":6734.670615931,"source":"CELESTRAK","updated_at":"2026-09-22T09:00:49.626713Z"}}